Wind_Speed
62 63 66 68 68 66 68 72 71 65 63 56 40 30 29 32 37 41 45 51 55 62 60 61 53 35 22 14 21 34 47 51 54 56 60 66 70 74 75 74 76 78 77
67 67 66 69 69 69 71 76 70 66 60 46 32 27 25 28 34 37 42 46 50 55 59 59 59 53 35 20 13 24 36 42 45 49 53 58 63 67 71 73 74 73 75
66 65 68 71 73 73 75 75 68 63 50 36 29 26 25 29 32 36 41 44 46 49 53 53 53 52 48 35 19 13 25 33 36 39 43 49 55 59 64 66 66 67 68
67 70 74 77 78 77 76 70 64 54 38 31 26 26 26 30 31 34 41 43 44 45 47 48 46 44 43 40 34 19 12 20 26 28 32 38 45 50 56 56 56 56 56
72 76 76 78 79 75 71 64 55 39 31 27 25 25 28 32 30 34 37 42 42 43 43 43 43 40 37 36 32 30 24 11 15 24 26 27 31 36 41 42 41 39 41
79 80 81 84 76 71 63 50 37 31 29 27 24 25 28 32 33 35 38 39 39 41 42 42 38 36 34 32 30 28 26 21 16 10 6 5 8 13 18 22 27 31 32
83 82 77 75 68 55 41 36 30 27 28 25 26 28 29 32 34 37 41 42 40 43 42 39 37 36 32 30 31 28 24 21 17 15 12 9 7 8 11 13 16 20 23
75 70 60 48 37 33 33 28 26 29 29 29 28 28 33 35 38 40 43 44 41 42 42 39 38 37 36 34 30 27 27 27 21 17 15 12 11 13 14 16 18 19 20
46 40 32 32 33 29 26 26 28 31 30 32 33 34 36 40 40 43 44 42 41 40 38 37 37 37 37 37 36 35 32 30 29 27 24 21 19 20 20 20 21 23 25
40 32 32 27 26 25 25 28 30 31 32 32 35 37 38 39 40 43 40 39 40 39 40 39 39 39 38 38 40 42 41 39 39 35 32 30 30 30 31 32 32 33 32
19 20 23 25 26 27 28 28 29 32 35 38 39 40 40 41 41 40 41 41 42 43 43 44 46 47 48 47 45 44 45 46 44 44 42 40 41 40 37 38 40 42 45
22 23 24 26 28 31 33 34 36 37 39 39 40 40 41 43 44 46 47 47 49 49 49 49 48 49 49 50 52 53 54 51 51 51 52 51 50 50 49 49 47 46 49
30 30 30 30 32 34 36 36 37 39 40 43 45 47 49 50 51 53 54 54 55 55 55 55 54 55 56 56 56 56 56 57 60 61 60 59 60 61 59 59 57 57 56
30 31 33 34 37 39 41 42 45 48 50 52 53 55 57 58 59 61 62 63 63 63 63 64 63 64 64 64 65 65 65 64 65 66 66 68 68 68 67 69 69 68 67
40 41 43 45 47 49 50 52 54 56 58 60 61 61 61 64 66 68 69 71 72 73 74 73 73 73 74 75 75 75 76 76 75 75 75 75 75 76 76 76 76 77 77
50 51 53 56 59 60 61 62 63 65 67 68 68 69 71 74 75 76 78 79 80 81 82 83 85 85 86 86 86 86 86 85 84 83 84 83 85 85 85 84 85 86 86
60 61 63 65 67 69 70 73 73 73 75 76 79 81 83 83 85 86 87 88 89 91 92 93 95 96 98 99 99 98 96 93 91 87 84 86 86 87 89 89 91 94 94
70 70 72 74 76 77 79 81 82 83 84 85 88 89 91 92 94 96 97 99 101 102 104 106 107 108 108 107 103 95 91 92 90 88 86 88 90 90 89 91 94 96 97
78 78 79 81 83 85 85 87 89 89 91 92 95 97 98 100 102 104 106 107 110 112 114 114 114 114 112 102 103 100 93 92 93 92 93 92 92 95 96 95 98 97 98
84 86 86 87 89 90 92 94 96 97 97 100 103 105 106 107 110 112 114 115 116 119 119 119 116 112 106 106 102 98 99 100 98 96 98 99 99 100 100 98 98 99 100
89 92 93 93 94 94 96 98 99 102 102 105 108 111 113 115 118 121 123 124 124 121 118 115 114 113 110 107 105 104 100 100 102 102 101 101 101 101 102 101 99 99 98
86 89 91 95 99 103 105 107 108 109 110 112 114 117 121 120 120 121 123 122 124 122 121 121 119 116 115 109 108 106 103 101 98 100 100 100 100 99 99 100 97 97 96
96 97 96 100 100 101 107 112 116 117 119 118 120 121 122 126 129 127 128 129 128 124 121 124 121 120 118 114 110 106 103 103 100 97 97 97 96 97 95 94 94 93 92
105 106 107 109 110 111 111 112 115 118 119 121 124 126 128 129 130 132 131 129 129 127 119 115 113 110 106 107 106 104 103 100 99 96 95 95 94 93 93 93 92 92 91
107 109 111 113 116 117 118 119 121 121 122 123 123 124 124 125 122 121 122 120 118 115 114 114 110 103 101 103 103 102 102 100 98 96 93 93 93 90 90 89 90 88 86
116 116 118 118 121 123 125 127 126 126 124 123 124 124 124 125 123 119 115 116 114 115 111 107 106 101 100 96 97 99 98 96 96 92 90 90 89 87 85 83 82 82 82
Wind_Direction
283 287 288 291 291 295 299 301 303 304 307 306 294 300 311 323 338 345 352 355 358 1 8 12 12 2 354 304 249 229 228 230 233 237 239 238 239 241 244 247 248 251 253
286 286 287 290 293 296 298 300 300 302 303 296 287 304 314 326 336 343 349 353 358 1 4 9 15 17 11 0 291 238 231 231 235 240 242 244 245 245 246 248 251 255 257
284 286 289 292 293 296 296 297 298 300 295 284 286 303 316 325 333 340 343 348 353 359 2 4 8 15 18 16 2 296 248 240 243 248 250 250 250 250 251 253 255 258 261
288 289 292 293 293 293 293 294 294 294 281 278 288 304 306 314 326 334 335 341 346 349 355 0 4 10 19 22 23 4 310 262 254 255 256 255 254 254 254 258 261 263 265
286 286 288 291 290 292 292 292 289 281 269 274 286 297 304 310 321 327 330 334 338 342 346 352 357 4 8 15 22 27 29 360 284 268 265 262 261 260 261 263 266 266 265
287 286 287 288 290 290 289 283 276 271 263 272 276 290 303 309 316 324 327 328 327 333 337 344 350 355 2 7 8 8 14 23 32 39 31 342 307 288 275 271 269 273 271
283 285 287 286 287 284 277 274 272 261 265 268 276 287 295 301 310 318 322 321 320 324 332 337 341 344 349 354 358 1 1 356 360 1 1 350 330 299 288 280 273 276 272
280 282 285 285 278 273 275 270 263 264 268 274 280 287 292 299 305 312 314 317 316 321 326 330 332 335 337 340 341 343 344 344 343 339 323 312 299 293 289 280 276 279 279
281 280 277 275 277 274 268 269 268 273 277 280 287 292 296 301 305 308 312 311 312 315 318 321 324 326 328 328 327 327 325 322 323 317 316 313 307 293 285 282 284 281 279
276 274 275 273 274 279 281 279 280 281 286 291 294 295 298 298 301 304 306 307 307 310 313 315 315 316 316 315 315 316 316 314 311 310 305 305 301 299 297 293 288 289 293
285 283 282 282 286 286 288 291 292 291 291 292 294 294 294 296 298 299 300 300 302 304 306 307 308 309 309 307 305 305 305 307 306 303 300 299 298 296 294 290 289 287 288
294 294 294 293 292 291 287 285 286 286 287 289 290 291 291 292 292 293 294 297 298 299 301 300 300 300 300 299 298 298 298 298 297 297 295 295 293 291 289 287 286 284 284
293 295 292 290 287 284 283 283 284 285 286 286 286 287 288 289 290 291 292 294 295 296 296 295 295 295 294 293 292 293 291 289 290 290 291 290 289 287 286 286 284 284 283
290 288 286 286 285 282 282 281 283 284 284 284 286 286 287 289 290 292 293 294 294 294 294 294 294 293 292 291 291 290 288 289 288 287 286 285 285 284 284 283 282 282 281
286 285 285 284 283 282 282 282 282 284 285 286 288 289 290 291 291 291 291 291 291 291 291 292 291 292 291 290 289 289 289 289 291 289 285 283 282 281 281 280 280 279 279
286 286 286 286 286 286 286 287 286 287 287 287 288 288 288 289 289 288 288 289 289 289 289 290 290 291 291 291 290 289 288 288 288 287 285 282 280 279 277 276 276 275 274
286 285 284 283 283 284 285 285 286 287 287 287 286 287 288 288 288 289 289 288 288 289 289 291 293 294 295 296 296 295 293 290 286 281 279 278 274 274 274 273 272 271 270
281 282 282 282 283 284 285 285 286 287 288 288 287 287 287 287 288 288 287 289 290 290 291 292 293 294 296 296 295 292 290 290 286 282 278 274 273 270 270 269 269 271 271
281 281 281 280 281 282 282 282 283 283 283 284 284 284 284 284 285 286 286 287 288 290 290 292 295 294 294 293 293 293 290 286 282 279 276 273 271 269 269 271 269 270 271
277 278 278 277 278 279 280 280 280 280 280 280 281 283 284 285 286 287 288 288 288 290 291 290 292 292 293 294 292 290 286 282 279 276 275 273 272 273 273 273 273 274 273
281 281 280 278 279 281 282 281 282 282 282 282 282 283 284 284 285 287 287 287 289 291 291 291 294 294 293 294 292 289 286 281 281 279 277 276 274 274 275 275 274 274 275
284 283 283 282 281 282 282 281 282 282 282 283 283 283 284 284 283 285 286 287 287 290 291 293 295 296 295 292 290 289 285 284 281 280 279 278 276 276 275 274 274 273 272
285 285 285 286 283 281 281 280 280 281 280 280 280 280 281 282 284 285 287 289 289 291 292 293 294 291 291 290 287 285 284 283 282 280 279 278 278 277 276 275 276 275 274
281 282 284 284 283 282 281 281 279 278 279 279 279 280 281 283 285 286 287 287 288 289 290 289 289 291 289 289 287 284 283 283 282 281 281 279 278 277 277 276 275 275 274
284 282 281 281 281 281 281 281 279 279 279 280 281 283 285 286 287 288 288 288 288 288 289 292 289 288 287 286 283 284 283 283 282 283 283 280 279 278 277 277 276 276 275
283 283 282 281 281 281 281 281 280 280 281 282 284 284 283 284 286 287 286 286 288 289 290 288 287 286 286 284 284 284 284 284 283 284 283 281 280 278 278 276 275 275 274
Height
10747 10743 10738 10732 10728 10725 10721 10716 10711 10705 10700 10695 10690 10686 10681 10675 10665 10655 10644 10631 10618 10604 10588 10571 10555 10543 10536 10536 10537 10541 10550 10560 10569 10578 10586 10593 10599 10606 10611 10617 10622 10623 10626
10734 10730 10724 10719 10717 10713 10709 10704 10699 10694 10689 10684 10681 10677 10673 10668 10659 10650 10640 10630 10619 10607 10594 10580 10566 10553 10545 10542 10542 10544 10550 10557 10565 10572 10577 10583 10589 10595 10600 10604 10608 10613 10615
10721 10716 10710 10706 10702 10699 10696 10691 10687 10682 10678 10674 10671 10668 10664 10660 10653 10646 10637 10628 10619 10610 10599 10589 10578 10568 10557 10550 10547 10549 10552 10557 10562 10567 10571 10575 10580 10585 10588 10591 10596 10600 10602
10705 10700 10696 10691 10688 10685 10682 10678 10674 10670 10667 10664 10662 10659 10657 10653 10647 10640 10634 10625 10618 10610 10603 10595 10587 10578 10569 10562 10555 10551 10552 10555 10558 10562 10564 10567 10571 10574 10577 10580 10585 10587 10588
10690 10686 10682 10678 10674 10670 10667 10664 10661 10659 10657 10656 10653 10651 10649 10645 10640 10634 10629 10622 10615 10609 10602 10596 10590 10584 10576 10570 10565 10560 10556 10554 10555 10557 10559 10562 10564 10567 10569 10573 10576 10577 10578
10674 10670 10666 10662 10657 10654 10652 10650 10650 10649 10649 10648 10646 10644 10641 10637 10633 10627 10622 10618 10611 10606 10601 10594 10589 10584 10579 10575 10570 10566 10563 10560 10557 10556 10556 10557 10559 10561 10563 10566 10567 10566 10567
10660 10654 10649 10646 10643 10641 10639 10639 10640 10641 10640 10639 10638 10635 10633 10630 10625 10620 10616 10612 10607 10602 10597 10592 10587 10583 10578 10574 10570 10568 10565 10563 10560 10558 10557 10557 10557 10558 10558 10558 10558 10558 10558
10642 10639 10637 10634 10632 10631 10631 10631 10631 10632 10631 10631 10629 10627 10625 10621 10617 10612 10609 10604 10601 10596 10592 10587 10583 10579 10576 10572 10569 10565 10563 10562 10560 10559 10558 10557 10556 10555 10555 10554 10553 10552 10549
10630 10630 10627 10626 10624 10623 10623 10623 10623 10624 10623 10622 10620 10618 10614 10611 10607 10604 10600 10596 10592 10589 10585 10581 10577 10575 10571 10568 10565 10562 10560 10558 10556 10555 10554 10553 10552 10551 10550 10548 10546 10544 10542
10623 10622 10619 10617 10616 10616 10615 10615 10615 10614 10613 10611 10608 10606 10604 10601 10597 10594 10590 10587 10584 10581 10577 10573 10570 10567 10564 10562 10559 10557 10554 10552 10549 10548 10546 10545 10543 10542 10541 10538 10536 10534 10531
10615 10614 10614 10612 10610 10609 10608 10607 10606 10604 10603 10600 10597 10595 10592 10589 10586 10583 10580 10577 10573 10570 10566 10563 10560 10557 10554 10552 10550 10548 10545 10543 10541 10538 10536 10534 10531 10530 10530 10528 10526 10523 10521
10610 10608 10607 10605 10603 10602 10600 10598 10596 10594 10590 10588 10585 10583 10580 10577 10574 10571 10567 10564 10560 10556 10554 10551 10549 10546 10543 10540 10537 10534 10532 10530 10529 10526 10523 10521 10519 10517 10516 10514 10512 10510 10508
10602 10601 10599 10597 10595 10593 10590 10588 10585 10583 10580 10577 10574 10571 10567 10564 10560 10557 10553 10549 10545 10542 10539 10537 10535 10532 10529 10527 10523 10520 10517 10514 10512 10510 10507 10505 10502 10500 10498 10496 10494 10494 10492
10596 10593 10591 10588 10585 10582 10579 10576 10573 10569 10566 10563 10560 10557 10553 10549 10545 10540 10536 10531 10527 10524 10522 10519 10516 10513 10511 10508 10504 10501 10497 10495 10493 10491 10488 10485 10483 10480 10478 10475 10473 10472 10471
10586 10583 10581 10577 10573 10570 10567 10564 10561 10557 10552 10548 10544 10540 10536 10531 10526 10521 10517 10512 10508 10504 10500 10498 10495 10491 10488 10486 10482 10479 10475 10472 10469 10466 10464 10462 10459 10456 10454 10452 10450 10448 10445
10574 10570 10566 10562 10558 10554 10550 10547 10544 10540 10534 10530 10526 10521 10517 10512 10506 10501 10496 10491 10486 10481 10477 10472 10468 10465 10462 10457 10454 10452 10448 10445 10442 10439 10437 10435 10430 10428 10426 10424 10421 10418 10416
10558 10555 10551 10546 10541 10537 10533 10527 10524 10521 10516 10512 10506 10500 10495 10489 10483 10478 10473 10467 10462 10456 10451 10446 10441 10436 10432 10428 10423 10420 10416 10413 10410 10407 10404 10402 10399 10396 10394 10392 10388 10384 10382
10537 10535 10530 10526 10521 10517 10514 10508 10504 10500 10495 10491 10483 10478 10471 10466 10460 10453 10446 10440 10434 10429 10423 10417 10412 10406 10402 10397 10391 10388 10384 10380 10375 10372 10370 10367 10364 10362 10362 10360 10355 10351 10348
10514 10511 10507 10501 10496 10492 10490 10485 10480 10477 10470 10467 10457 10450 10445 10439 10433 10426 10419 10412 10405 10398 10391 10385 10380 10374 10367 10365 10360 10357 10353 10348 10343 10338 10334 10332 10327 10323 10324 10326 10322 10319 10314
10490 10487 10482 10476 10471 10467 10462 10457 10452 10447 10443 10436 10427 10420 10416 10409 10401 10393 10386 10379 10374 10366 10359 10353 10348 10342 10336 10330 10326 10322 10317 10312 10308 10302 10299 10296 10295 10291 10290 10291 10289 10286 10280
10463 10458 10454 10448 10442 10439 10434 10426 10421 10415 10411 10404 10395 10389 10383 10376 10369 10362 10354 10349 10342 10335 10328 10324 10316 10308 10303 10297 10290 10285 10285 10280 10276 10270 10264 10263 10261 10260 10257 10256 10257 10254 10250
10441 10434 10430 10422 10415 10410 10404 10397 10390 10386 10379 10372 10363 10358 10351 10343 10335 10330 10321 10315 10309 10304 10295 10289 10284 10271 10264 10261 10251 10247 10246 10243 10242 10237 10231 10227 10224 10222 10223 10220 10220 10221 10220
10416 10409 10403 10396 10387 10381 10375 10369 10359 10353 10347 10339 10330 10321 10313 10307 10301 10294 10288 10281 10273 10267 10262 10256 10251 10243 10230 10222 10214 10213 10211 10207 10205 10204 10200 10195 10190 10186 10185 10185 10183 10184 10186
10386 10380 10373 10366 10356 10348 10341 10334 10325 10319 10313 10306 10297 10288 10282 10273 10267 10261 10252 10245 10238 10230 10226 10222 10215 10209 10200 10188 10177 10176 10174 10173 10171 10171 10170 10164 10160 10156 10153 10151 10150 10151 10153
10352 10346 10337 10329 10320 10312 10302 10294 10290 10284 10278 10270 10263 10256 10248 10239 10231 10222 10214 10207 10200 10192 10188 10181 10176 10172 10172 10159 10149 10144 10140 10139 10136 10136 10136 10130 10125 10125 10123 10120 10116 10117 10120
10314 10308 10299 10293 10283 10275 10267 10253 10250 10246 10241 10238 10230 10222 10213 10204 10195 10188 10183 10175 10169 10160 10151 10144 10138 10139 10132 10128 10122 10113 10110 10107 10101 10105 10103 10098 10092 10092 10090 10090 10090 10089 10087